Location: Unspecified
(58.9933°N, 5.6375°E)
Time: 23:42:36
(UTC+01:00)

Resurs 1-4 Rocket - Visible Passes

Search period start: 19 December 2014 00:00
Search period end: 29 December 2014 00:00
Orbit: 799 x 815 km, 98.4° (Epoch: 17 December)

Date Brightness Start Highest point End Pass type
(mag) Time Alt. Az. Time Alt. Az. Time Alt. Az.
19 Dec 4.0 04:23:03 10° NNE 04:25:17 25° NE 04:25:17 25° NE visible
19 Dec 3.0 06:03:09 10° N 06:06:22 31° NNW 06:06:22 31° NNW visible
19 Dec 3.7 07:44:10 10° N 07:46:42 14° NW 07:47:27 13° NW visible
19 Dec 5.1 17:38:03 10° W 17:39:29 11° WNW 17:40:54 10° WNW visible
20 Dec 4.3 03:58:43 10° NNE 04:00:30 20° NE 04:00:30 20° NE visible
20 Dec 3.1 05:38:34 10° NNE 05:41:35 33° N 05:41:35 33° N visible
20 Dec 3.5 07:19:18 10° N 07:22:39 17° NW 07:22:40 17° NW visible
20 Dec 4.8 17:11:20 10° WSW 17:14:34 16° W 17:17:50 10° NW visible
21 Dec 4.7 03:34:31 10° NE 03:35:43 15° NE 03:35:43 15° NE visible
21 Dec 3.3 05:14:03 10° NNE 05:16:48 32° N 05:16:48 32° N visible
21 Dec 3.3 06:54:33 10° N 06:57:54 22° NW 06:57:54 22° NW visible
21 Dec 4.5 16:45:36 10° SW 16:49:45 23° W 16:53:56 10° NW visible
22 Dec 5.0 03:10:32 10° NE 03:10:57 11° NE 03:10:57 11° NE visible
22 Dec 3.6 04:49:34 10° NNE 04:52:02 28° NNE 04:52:02 28° NNE visible
22 Dec 3.2 06:29:53 10° N 06:33:07 26° NNW 06:33:07 26° NNW visible
22 Dec 3.9 08:11:37 10° NNW 08:12:45 11° NNW 08:13:53 10° NW visible
23 Dec 4.0 04:25:09 10° NNE 04:27:16 24° NNE 04:27:16 24° NNE visible
23 Dec 3.1 06:05:16 10° N 06:08:21 30° NNW 06:08:21 30° NNW visible
23 Dec 3.8 07:46:19 10° N 07:48:46 13° NW 07:49:26 13° NW visible
23 Dec 5.2 17:40:39 10° W 17:41:38 11° WNW 17:42:38 10° WNW visible
24 Dec 4.4 04:00:48 10° NNE 04:02:30 19° NE 04:02:30 19° NE visible
24 Dec 3.2 05:40:41 10° NNE 05:43:35 32° N 05:43:35 32° N visible
24 Dec 3.6 07:21:26 10° N 07:24:41 17° NW 07:24:41 17° NW visible
24 Dec 4.8 17:13:37 10° WSW 17:16:43 16° W 17:19:51 10° NW visible
25 Dec 4.7 03:36:35 10° NNE 03:37:44 15° NE 03:37:44 15° NE visible
25 Dec 3.4 05:16:09 10° NNE 05:18:50 31° N 05:18:50 31° N visible
25 Dec 3.4 06:56:41 10° N 06:59:55 21° NW 06:59:55 21° NW visible
25 Dec 4.5 16:47:50 10° SW 16:51:54 22° W 16:55:59 10° NW visible
26 Dec 5.0 03:12:34 10° NE 03:12:59 11° NE 03:12:59 11° NE visible
26 Dec 3.7 04:51:40 10° NNE 04:54:04 28° NNE 04:54:04 28° NNE visible
26 Dec 3.2 06:32:00 10° N 06:35:10 25° NNW 06:35:10 25° NNW visible
26 Dec 4.0 08:13:53 10° NNW 08:14:48 10° NNW 08:15:43 10° NW visible
27 Dec 4.0 04:27:14 10° NNE 04:29:19 24° NNE 04:29:19 24° NNE visible
27 Dec 3.2 06:07:22 10° N 06:10:25 29° NNW 06:10:25 29° NNW visible
27 Dec 3.8 07:48:29 10° N 07:50:49 13° NW 07:51:30 13° NW visible
28 Dec 4.3 04:02:53 10° NNE 04:04:34 19° NE 04:04:34 19° NE visible
28 Dec 3.2 05:42:47 10° NNE 05:45:40 31° N 05:45:40 31° N visible
28 Dec 3.6 07:23:34 10° N 07:26:45 17° NW 07:26:45 17° NW visible
28 Dec 4.8 17:15:54 10° WSW 17:18:52 15° W 17:21:51 10° NW visible
